Weather History for Coffeyville, KS

Change the Weather History Date:

Monday, August 12, 2013

  Actual Average Record
Temperature  
Mean Temperature 78 °F -  
Max Temperature 86 °F 89 °F 104 °F (1999)
Min Temperature 71 °F 65 °F 48 °F (2004)
Cooling Degree Days 12    
Growing Degree Days 28 (Base 50)    
Moisture  
Dew Point 72 °F    
Average Humidity 86    
Maximum Humidity 94    
Minimum Humidity 65    
Precipitation  
Precipitation 0.35 in - - ()
Sea Level Pressure  
Sea Level Pressure 30.01 in    
Wind  
Wind Speed 4 mph (ENE)    
Max Wind Speed 12 mph    
Max Gust Speed -    
Visibility 8 miles    
Events Rain , Thunderstorm    
Averages and records for this station are not official NWS values.
T = Trace of Precipitation, MM = Missing Value Source: NWS Daily Summary

Daily Weather History Graph

Daily Weather History Graph

Search for Another Location

Airport:

Trip Planner

Search our weather history database for the weather conditions in past years. The results will help you decide how hot, cold, wet, or windy it might be!

Date:

Astronomy

Aug. 12, 2013 Rise Set
Actual Time 6:36 AM CDT 8:17 PM CDT
Civil Twilight 6:08 AM CDT 8:45 PM CDT
Nautical Twilight 5:35 AM CDT 9:18 PM CDT
Astronomical Twilight 4:59 AM CDT 9:54 PM CDT
Moon 12:18 PM CDT (8/12) 11:21 PM CDT (8/12)
Length of Visible Light 14h 36m
Length of Day
13h 40m
Waxing Crescent, 31% of the Moon is Illuminated
Aug 12
Waxing Crescent
Aug 14
First Quarter
Aug 20
Full
Aug 28
Last Quarter
Sep 5
New

Hourly Weather History & Observations

Time (CDT) Temp. Heat Index Dew Point Humidity Pressure Visibility Wind Dir Wind Speed Gust Speed Precip Events Conditions
12:52 AM 77.0 °F - 73.0 °F 88% 30.02 in 8.0 mi Calm Calm - N/A   Clear
1:52 AM 75.0 °F - 73.0 °F 94% 30.00 in 7.0 mi ESE 3.5 mph - N/A   Clear
2:52 AM 75.9 °F - 73.0 °F 91% 30.00 in 7.0 mi South 3.5 mph - N/A   Clear
3:52 AM 75.9 °F - 73.0 °F 91% 29.99 in 6.0 mi Calm Calm - N/A   Clear
4:52 AM 75.0 °F - 73.0 °F 94% 29.99 in 5.0 mi East 3.5 mph - N/A   Clear
5:52 AM 75.0 °F - 73.0 °F 94% 29.99 in 5.0 mi Calm Calm - 0.00 in   Partly Cloudy
6:52 AM 75.0 °F - 73.0 °F 94% 29.99 in 3.0 mi Calm Calm - 0.02 in Rain Light Rain
7:52 AM 73.9 °F - 70.0 °F 87% 30.02 in 10.0 mi NW 10.4 mph - 0.05 in Rain Light Rain
8:52 AM 73.0 °F - 69.1 °F 87% 30.03 in 10.0 mi North 11.5 mph - 0.03 in Rain Light Rain
9:45 AM 73.4 °F - 69.8 °F 88% 30.06 in 10.0 mi North 9.2 mph - 0.05 in Rain , Thunderstorm Light Rain
9:52 AM 73.9 °F - 70.0 °F 87% 30.04 in 9.0 mi North 9.2 mph - 0.05 in Rain , Thunderstorm Light Thunderstorms and Rain
10:10 AM 73.4 °F - 69.8 °F 88% 30.07 in 10.0 mi North 9.2 mph - 0.00 in   Overcast
10:18 AM 71.6 °F - 69.8 °F 94% 30.07 in 2.5 mi NNE 8.1 mph - 0.05 in Rain , Thunderstorm Rain
10:32 AM 71.6 °F - 68.0 °F 88% 30.10 in 4.0 mi Calm Calm - 0.08 in Rain , Thunderstorm Thunderstorms and Rain
10:52 AM 71.1 °F - 69.1 °F 93% 30.07 in 6.0 mi ENE 3.5 mph - 0.10 in Rain Light Rain
10:59 AM 71.6 °F - 69.8 °F 94% 30.09 in 6.0 mi NE 4.6 mph - 0.01 in Rain , Thunderstorm Light Rain
11:14 AM 71.6 °F - 69.8 °F 94% 30.09 in 9.0 mi Calm Calm - 0.02 in Rain Light Rain
11:52 AM 72.0 °F - 69.1 °F 91% 30.06 in 4.0 mi Calm Calm - 0.04 in Rain Rain
12:52 PM 73.9 °F - 71.1 °F 91% 30.01 in 10.0 mi SSE 8.1 mph - 0.05 in   Mostly Cloudy
1:52 PM 78.1 °F - 71.1 °F 79% 30.01 in 10.0 mi SSE 9.2 mph - 0.00 in   Partly Cloudy
2:52 PM 81.0 °F 84.9 °F 71.1 °F 72% 29.99 in 10.0 mi South 9.2 mph - N/A   Mostly Cloudy
3:52 PM 82.9 °F 87.5 °F 71.1 °F 67% 29.97 in 10.0 mi Variable 5.8 mph - N/A   Clear
4:52 PM 84.0 °F 89.6 °F 72.0 °F 67% 29.95 in 10.0 mi WSW 5.8 mph - N/A   Clear
5:52 PM 84.9 °F 91.4 °F 73.0 °F 67% 29.95 in 10.0 mi Variable 4.6 mph - N/A   Scattered Clouds
6:52 PM 84.9 °F 90.7 °F 72.0 °F 65% 29.94 in 10.0 mi WNW 3.5 mph - N/A   Mostly Cloudy
7:52 PM 82.0 °F 87.9 °F 73.9 °F 76% 29.94 in 10.0 mi East 4.6 mph - N/A   Partly Cloudy
8:52 PM 78.1 °F - 73.9 °F 87% 29.98 in 10.0 mi Calm Calm - N/A   Clear
9:45 PM 78.8 °F - 73.4 °F 83% 30.01 in 10.0 mi Calm Calm - 0.00 in Rain , Thunderstorm Light Rain
9:52 PM 78.1 °F - 73.9 °F 87% 30.00 in 10.0 mi Calm Calm - 0.00 in Rain , Thunderstorm Light Rain
10:09 PM 78.8 °F - 75.2 °F 89% 30.02 in 10.0 mi Calm Calm - 0.01 in Rain , Thunderstorm Light Rain
10:30 PM 78.8 °F - 75.2 °F 89% 30.01 in 10.0 mi SSE 3.5 mph - 0.01 in Rain Light Rain
10:52 PM 77.0 °F - 73.9 °F 90% 29.98 in 10.0 mi East 3.5 mph - 0.01 in   Partly Cloudy
11:52 PM 77.0 °F - 75.0 °F 94% 29.97 in 10.0 mi Calm Calm - N/A   Clear